This is the latest recevied weather packets stored in our database for station/object SP6PWT-13. If no packets are shown the sender has not sent any weather packets the latest 10 day(s).
| Time | Temp. | Humidity | Pressure | Rain* | Wind** | Luminosity | Snow |
|---|---|---|---|---|---|---|---|
| 1777558852 | 14.44° C | 36% | 1013 hPa | 0 mm | - | 383 W/m² | - |
| 1777558551 | 14.44° C | 35% | 1012.6 hPa | 0 mm | - | 397 W/m² | - |
| 1777558251 | 15° C | 35% | 1012.7 hPa | 0 mm | - | 414 W/m² | - |
| 1777557950 | 15° C | 35% | 1012.8 hPa | 0 mm | - | 431 W/m² | - |
| 1777557650 | 14.44° C | 35% | 1012.8 hPa | 0 mm | - | 465 W/m² | - |
| 1777557350 | 13.89° C | 35% | 1012.8 hPa | 0 mm | - | 472 W/m² | - |
| 1777557050 | 15° C | 34% | 1012.9 hPa | 0 mm | - | 487 W/m² | - |
| 1777556749 | 14.44° C | 34% | 1012.8 hPa | 0 mm | - | 489 W/m² | - |
| 1777556448 | 14.44° C | 35% | 1012.9 hPa | 0 mm | - | 306 W/m² | - |
| 1777556147 | 15° C | 34% | 1012.9 hPa | 0 mm | - | 494 W/m² | - |
| 1777555846 | 14.44° C | 35% | 1012.9 hPa | 0 mm | - | 489 W/m² | - |
| 1777555546 | 13.89° C | 35% | 1013 hPa | 0 mm | - | 524 W/m² | - |
| 1777555246 | 13.89° C | 35% | 1013.1 hPa | 0 mm | - | 249 W/m² | - |
| 1777554945 | 14.44° C | 34% | 1013.2 hPa | 0 mm | - | 163 W/m² | - |
| 1777554645 | 14.44° C | 34% | 1013.1 hPa | 0 mm | - | 338 W/m² | - |
| 1777554345 | 13.89° C | 34% | 1013.2 hPa | 0 mm | - | 639 W/m² | - |
| 1777554044 | 13.33° C | 35% | 1013.4 hPa | 0 mm | - | 670 W/m² | - |
| 1777553744 | 13.33° C | 35% | 1013.4 hPa | 0 mm | - | 298 W/m² | - |
| 1777553443 | 13.33° C | 35% | 1013.4 hPa | 0 mm | - | 253 W/m² | - |
| 1777553143 | 13.89° C | 34% | 1013.3 hPa | 0 mm | - | 228 W/m² | - |
| 1777552843 | 13.33° C | 35% | 1013.5 hPa | 0 mm | - | 695 W/m² | - |
| 1777552542 | 13.33° C | 35% | 1013.6 hPa | 0 mm | - | 115 W/m² | - |
| 1777552242 | 13.33° C | 35% | 1013.6 hPa | 0 mm | - | 227 W/m² | - |
| 1777551941 | 13.89° C | 34% | 1013.7 hPa | 0 mm | - | 681 W/m² | - |
| 1777551640 | 14.44° C | 34% | 1013.6 hPa | 0 mm | - | 641 W/m² | - |
* Rain latest hour (hover to see other rain measurements)
** Current wind speed in m/s (hover to see current wind gust speed)